This demonstration page uses our WeatherBlox Daily Observations layout. Learn more.

Left ArrowRight Arrow

Hourly Observations for January 8, 2017

Temp ( °F °C ) Dew Point ( °F °C ) Humidity (%) Winds ( mph kmh ) Pressure ( in mb ) Visibility ( mi km ) Precip ( " mm )
12:52 am 00:52 Clear 16 -8.9 9 -12.8 74 74 Calm 30.69 1039 10 16 0.00 0.00
1:52 am 01:52 Clear 11 -11.7 7 -13.9 84 84 Calm 30.69 1039 10 16 0.00 0.00
2:52 am 02:52 Clear 11 -11.7 7 -13.9 84 84 ESE 3 6 30.68 1039 10 16 0.00 0.00
3:52 am 03:52 Clear 15 -9.4 9 -12.8 77 77 ESE 3 6 30.69 1039 10 16 0.00 0.00
4:52 am 04:52 Clear 13 -10.6 8 -13.3 81 81 SE 6 9 30.68 1039 10 16 0.00 0.00
5:52 am 05:52 Clear 17 -8.3 10 -12.2 74 74 SE 7 11 30.69 1039 10 16 0.00 0.00
6:52 am 06:52 Clear 19 -7.2 11 -11.7 71 71 SE 10 17 30.67 1039 10 16 0.00 0.00
7:52 am 07:52 Sunny 20 -6.7 11 -11.7 68 68 SSE 10 17 30.68 1039 10 16 0.00 0.00
8:52 am 08:52 Sunny 21 -6.1 12 -11.1 68 68 SE 15 24 30.65 1038 10 16 0.00 0.00
9:52 am 09:52 Mostly Sunny 23 -5 13 -10.6 65 65 SSE 14 22 30.66 1038 10 16 0.00 0.00
10:52 am 10:52 Sunny 25 -3.9 13 -10.6 60 60 SSE 17 28 30.65 1038 10 16 0.00 0.00
11:52 am 11:52 Sunny 28 -2.2 14 -10 56 56 SSE 15 24 30.62 1037 10 16 0.00 0.00
12:52 pm 12:52 Mostly Cloudy 30 -1.1 14 -10 51 51 SSE 14 22 30.56 1035 10 16 0.00 0.00
1:52 pm 13:52 Cloudy 33 0.6 15 -9.4 47 47 S 15 24 30.53 1034 10 16 0.00 0.00
2:52 pm 14:52 Mostly Sunny 34 1.1 14 -10 44 44 S 20 31 30.46 1032 10 16 0.00 0.00
3:52 pm 15:52 Sunny 34 1.1 13 -10.6 42 42 SSE 20 31 30.45 1031 10 16 0.00 0.00
4:52 pm 16:52 Sunny 33 0.6 10 -12.2 38 38 SSE 17 28 30.41 1030 10 16 0.00 0.00
5:52 pm 17:52 Clear 31 -0.6 9 -12.8 40 40 SSE 17 28 30.41 1030 10 16 0.00 0.00
6:52 pm 18:52 Clear 29 -1.7 10 -12.2 45 45 S 14 22 30.42 1030 10 16 0.00 0.00
7:52 pm 19:52 Clear 28 -2.2 11 -11.7 49 49 S 14 22 30.45 1031 10 16 0.00 0.00
8:52 pm 20:52 Clear 27 -2.8 12 -11.1 53 53 S 13 20 30.44 1031 10 16 0.00 0.00
9:52 pm 21:52 Clear 26 -3.3 14 -10 60 60 S 16 26 30.42 1030 10 16 0.00 0.00
10:52 pm 22:52 Clear 25 -3.9 14 -10 63 63 SSE 15 24 30.41 1030 10 16 0.00 0.00
11:52 pm 23:52 Clear 24 -4.4 14 -10 65 65 S 14 22 30.40 1030 10 16 0.00 0.00

Powered by AerisWeather